Weather History for KMEB - March, 2013

Change the Weather History Date:

Thursday, March 21, 2013

  Actual Average (KLBT) Record (KLBT)
Temperature  
Mean Temperature 42 °F 56 °F  
Max Temperature 51 °F 68 °F - ()
Min Temperature 33 °F 43 °F - ()
Degree Days  
Heating Degree Days 23 10  
Month to date heating degree days 262  
Since 1 July heating degree days 2492  
Cooling Degree Days 0 0  
Month to date cooling degree days 0  
Year to date cooling degree days 3  
Moisture  
Dew Point 17 °F    
Average Humidity 42    
Maximum Humidity 76    
Minimum Humidity 18    
Precipitation  
Precipitation 0.00 in 0.09 in - ()
Month to date precipitation 2.26  
Year to date precipitation 8.13  
Sea Level Pressure  
Sea Level Pressure 29.83 in    
Wind  
Wind Speed 8 mph (NW)    
Max Wind Speed 20 mph    
Max Gust Speed 26 mph    
Visibility 10 miles    
Events      
T = Trace of Precipitation, MM = Missing Value Source: NWS Daily Summary

Daily Weather History Graph

Daily Weather History Graph

Search for Another Location

Airport or City:

Trip Planner

Search our weather history database for the weather conditions in past years. The results will help you decide how hot, cold, wet, or windy it might be!

Date:

Astronomy

Mar. 21, 2013 Rise Set
Actual Time 7:19 AM EDT 7:30 PM EDT
Civil Twilight 6:54 AM EDT 7:55 PM EDT
Nautical Twilight 6:24 AM EDT 8:24 PM EDT
Astronomical Twilight 5:55 AM EDT 8:54 PM EDT
Moon 2:09 PM EDT (3/21) 3:28 AM EDT (3/21)
Length of Visible Light 13h 01m
Length of Day
12h 10m
Waxing Gibbous, 68% of the Moon is Illuminated
Mar 21
Waxing Gibbous
Mar 27
Full
Apr 3
Last Quarter
Apr 10
New
Apr 18
First Quarter

Hourly Weather History & Observations

Time (EDT) Temp. Windchill Dew Point Humidity Pressure Visibility Wind Dir Wind Speed Gust Speed Precip Events Conditions
12:52 AM 35.1 °F - 28.0 °F 76% 29.77 in 10.0 mi Calm Calm - N/A   Clear
1:52 AM 35.1 °F 30.1 °F 26.1 °F 70% 29.76 in 10.0 mi SW 5.8 mph - N/A   Clear
2:52 AM 34.0 °F 31.0 °F 26.1 °F 73% 29.75 in 10.0 mi NW 3.5 mph - N/A   Clear
3:52 AM 34.0 °F 28.0 °F 24.1 °F 67% 29.75 in 10.0 mi NW 6.9 mph - N/A   Clear
4:52 AM 35.1 °F 30.1 °F 24.1 °F 64% 29.77 in 10.0 mi NW 5.8 mph - N/A   Clear
5:52 AM 36.0 °F 33.3 °F 26.1 °F 67% 29.78 in 10.0 mi NW 3.5 mph - N/A   Clear
6:52 AM 34.0 °F 28.8 °F 24.1 °F 67% 29.80 in 10.0 mi West 5.8 mph - N/A   Clear
7:52 AM 35.1 °F 28.6 °F 19.9 °F 54% 29.82 in 10.0 mi NW 8.1 mph - N/A   Clear
8:52 AM 39.0 °F 31.8 °F 19.9 °F 46% 29.83 in 10.0 mi NW 11.5 mph 17.3 mph N/A   Clear
9:52 AM 42.1 °F 35.7 °F 19.9 °F 41% 29.84 in 10.0 mi NW 11.5 mph 19.6 mph N/A   Clear
10:52 AM 44.1 °F 38.1 °F 15.1 °F 31% 29.84 in 10.0 mi WNW 11.5 mph 21.9 mph N/A   Clear
11:52 AM 46.9 °F - 12.9 °F 25% 29.83 in 10.0 mi NNW 17.3 mph 25.3 mph N/A   Clear
12:52 PM 48.9 °F - 7.0 °F 18% 29.83 in 10.0 mi WNW 16.1 mph 25.3 mph N/A   Clear
1:52 PM 50.0 °F - 10.0 °F 20% 29.81 in 10.0 mi NNW 18.4 mph 23.0 mph N/A   Clear
2:52 PM 50.0 °F - 12.9 °F 23% 29.80 in 10.0 mi West 16.1 mph 19.6 mph N/A   Clear
3:52 PM 50.0 °F - 10.9 °F 21% 29.79 in 10.0 mi NW 17.3 mph 23.0 mph N/A   Clear
4:52 PM 50.0 °F - 9.0 °F 19% 29.81 in 10.0 mi WNW 19.6 mph 26.5 mph N/A   Clear
5:52 PM 48.9 °F - 10.0 °F 21% 29.83 in 10.0 mi WNW 18.4 mph 23.0 mph N/A   Clear
6:52 PM 46.0 °F 39.9 °F 10.0 °F 23% 29.85 in 10.0 mi NNW 13.8 mph 20.7 mph N/A   Clear
7:52 PM 42.1 °F 37.1 °F 12.0 °F 29% 29.88 in 10.0 mi NNW 8.1 mph - N/A   Clear
8:52 PM 39.9 °F 35.1 °F 12.0 °F 32% 29.92 in 10.0 mi North 6.9 mph - N/A   Clear
9:52 PM 37.0 °F 31.0 °F 12.9 °F 37% 29.94 in 10.0 mi North 8.1 mph - N/A   Clear
10:52 PM 34.0 °F 28.0 °F 12.9 °F 42% 29.96 in 10.0 mi NNE 6.9 mph - N/A   Clear
11:52 PM 33.1 °F 26.9 °F 10.9 °F 40% 29.99 in 10.0 mi NNE 6.9 mph - N/A   Clear